This is the latest recevied weather packets stored in our database for station/object KR4ELZ. If no packets are shown the sender has not sent any weather packets the latest 10 day(s).
| Time | Temp. | Humidity | Pressure | Rain* | Wind** | Luminosity | Snow |
|---|---|---|---|---|---|---|---|
| 1777712344 | 7.22° C | 89% | 1016 hPa | 0 mm | - | 0 W/m² | - |
| 1777712041 | 7.22° C | 88% | 1015.9 hPa | 0 mm | - | 0 W/m² | - |
| 1777711738 | 7.22° C | 88% | 1015.8 hPa | 0 mm | - | 0 W/m² | - |
| 1777711434 | 7.22° C | 88% | 1015.7 hPa | 0 mm | - | 0 W/m² | - |
| 1777711129 | 7.22° C | 87% | 1016.2 hPa | 0 mm | - | 0 W/m² | - |
| 1777710826 | 7.78° C | 87% | 1016.1 hPa | 0 mm | - | 0 W/m² | - |
| 1777710523 | 7.78° C | 84% | 1016 hPa | 0 mm | - | 0 W/m² | - |
| 1777710221 | 7.78° C | 85% | 1016.1 hPa | 0 mm | - | 0 W/m² | - |
| 1777709918 | 7.78° C | 87% | 1015.8 hPa | 0 mm | - | 0 W/m² | - |
| 1777709616 | 7.78° C | 86% | 1015.9 hPa | 0 mm | - | 0 W/m² | - |
| 1777709312 | 7.78° C | 85% | 1015.9 hPa | 0 mm | - | 0 W/m² | - |
| 1777709010 | 7.78° C | 86% | 1015.7 hPa | 0 mm | - | 0 W/m² | - |
| 1777708707 | 7.78° C | 85% | 1015.9 hPa | 0 mm | - | 0 W/m² | - |
| 1777708405 | 7.78° C | 85% | 1015.7 hPa | 0 mm | - | 0 W/m² | - |
| 1777708102 | 7.78° C | 85% | 1015.7 hPa | 0 mm | - | 0 W/m² | - |
| 1777707800 | 8.33° C | 83% | 1015.6 hPa | 0 mm | - | 0 W/m² | - |
| 1777707496 | 8.33° C | 82% | 1016 hPa | 0 mm | - | 0 W/m² | - |
| 1777707192 | 8.33° C | 81% | 1016 hPa | 0 mm | - | 0 W/m² | - |
| 1777706890 | 8.89° C | 80% | 1016 hPa | 0 mm | - | 0 W/m² | - |
| 1777706588 | 8.89° C | 79% | 1016 hPa | 0 mm | - | 0 W/m² | - |
| 1777706285 | 8.89° C | 78% | 1016 hPa | 0 mm | - | 0 W/m² | - |
| 1777705982 | 8.89° C | 79% | 1015.9 hPa | 0 mm | - | 0 W/m² | - |
| 1777705681 | 8.89° C | 79% | 1015.9 hPa | 0 mm | - | 0 W/m² | - |
| 1777705378 | 9.44° C | 79% | 1016 hPa | 0 mm | - | 0 W/m² | - |
| 1777705077 | 9.44° C | 78% | 1015.9 hPa | 0 mm | - | 0 W/m² | - |
* Rain latest hour (hover to see other rain measurements)
** Current wind speed in m/s (hover to see current wind gust speed)